Theta_e
303 303 303 303 303 304 303 303 303 303 303 303 303 302 301 301 301 303 304 304 308 309 311 313 314 314 315 314 314 314 317 316 316 316 317 318 319 318 316 317 319 318 318
302 302 302 302 302 303 303 303 302 302 302 302 302 302 302 301 301 301 303 304 305 307 309 310 311 312 313 313 313 312 315 315 313 315 316 316 317 317 318 317 318 318 318
302 302 302 302 302 302 302 302 302 302 302 302 301 302 302 302 302 301 301 303 303 303 305 307 310 310 310 311 312 311 311 311 312 315 313 314 314 316 316 318 316 317 318
302 301 301 301 302 302 302 302 302 301 301 301 301 301 301 302 302 302 301 301 302 302 302 305 307 309 309 310 310 310 310 311 312 314 313 313 313 313 314 314 316 317 317
302 301 301 301 301 301 301 301 301 300 300 300 300 301 302 301 302 301 301 301 302 303 303 302 305 307 308 309 309 309 310 310 312 312 312 312 313 313 316 314 313 316 316
302 301 301 301 301 300 300 300 299 300 300 299 298 299 301 301 301 301 301 301 301 302 302 302 303 303 305 308 308 309 309 309 311 311 312 312 313 314 314 313 314 312 315
301 301 301 301 300 300 300 300 300 299 299 300 299 299 300 298 299 300 301 301 300 301 301 302 303 303 302 304 306 307 308 309 310 311 311 312 312 312 313 313 312 313 314
301 301 301 301 301 300 299 299 299 299 299 299 298 296 294 297 299 299 299 299 300 300 300 301 302 302 302 302 302 305 306 307 309 310 310 311 312 312 313 313 312 313 312
301 301 301 301 301 300 300 300 299 298 298 298 298 298 294 292 294 298 297 299 299 300 300 301 301 301 302 302 302 302 304 306 307 309 310 310 311 312 312 312 313 312 312
302 301 301 301 300 300 299 300 299 299 298 297 297 297 298 297 294 293 298 298 298 298 300 301 301 301 301 301 302 302 304 306 306 308 310 310 311 311 311 311 312 312 312
302 301 301 301 300 300 300 300 299 298 298 298 298 297 297 296 296 294 292 295 297 298 300 301 301 301 301 301 301 301 303 305 305 307 308 309 310 310 310 311 311 311 311
301 301 301 301 301 300 300 300 300 299 299 298 299 298 297 296 294 293 292 293 293 296 298 300 300 301 301 301 300 301 303 305 305 306 306 308 309 309 309 310 310 311 311
300 301 301 300 301 301 300 300 299 299 299 298 298 298 298 298 299 296 295 294 292 295 296 298 300 300 300 300 301 302 304 304 305 305 306 306 308 308 308 308 309 309 310
302 302 301 301 301 301 300 300 300 300 299 299 299 298 298 298 299 298 296 294 292 293 293 294 299 299 299 299 301 302 303 304 305 305 305 305 306 307 307 307 307 307 309
301 301 301 301 300 300 300 300 299 299 299 299 299 298 298 299 299 298 298 297 295 291 292 294 295 299 298 298 300 301 303 302 304 304 305 305 306 306 306 307 307 306 307
301 301 300 300 300 300 300 299 299 299 298 299 298 298 298 298 298 298 298 297 297 295 292 295 294 297 298 297 299 300 300 302 303 304 305 305 305 306 306 306 305 304 304
300 299 299 300 299 299 299 299 299 299 297 298 298 298 297 298 297 297 297 297 296 296 293 295 297 296 296 295 297 299 300 299 300 302 303 304 305 305 305 305 304 303 303
300 299 299 299 299 299 299 299 298 298 297 297 298 297 297 297 297 298 297 296 296 296 295 293 296 295 294 296 298 298 298 297 297 299 302 304 304 304 304 304 303 302 302
300 300 299 298 299 299 299 299 299 299 299 298 298 298 298 298 297 297 297 296 296 296 296 295 295 298 297 294 295 295 296 297 296 298 301 303 304 304 304 304 301 301 300
300 299 299 299 300 300 300 300 299 299 299 299 299 299 299 298 297 298 297 297 297 296 296 295 294 295 296 295 294 295 295 294 295 295 297 299 301 302 303 302 300 300 299
299 299 299 299 300 300 300 300 300 300 299 299 299 299 299 300 302 301 299 298 297 296 295 294 294 294 293 293 290 293 293 295 294 295 295 296 297 298 299 301 298 297 298
298 297 298 298 299 299 301 302 302 300 299 299 299 299 299 301 302 304 305 304 299 296 295 294 295 293 294 294 294 291 292 291 290 296 293 294 294 294 295 295 296 296 296
298 297 298 298 298 299 301 304 305 304 300 300 299 299 298 298 300 300 303 306 306 306 302 297 294 295 294 295 294 286 287 289 292 293 292 292 293 293 296 294 295 296 297
298 298 298 298 298 298 301 303 305 305 305 303 301 300 299 298 298 299 299 298 298 300 302 304 299 298 298 297 295 294 291 288 291 292 292 290 293 293 292 293 294 296 297
299 299 298 298 298 298 301 302 303 303 303 303 303 303 301 301 302 302 301 298 297 298 300 303 304 304 305 302 298 294 289 288 287 289 291 292 291 291 291 291 292 294 297
298 298 298 299 299 299 301 302 302 302 301 300 302 302 303 303 303 303 302 301 298 297 297 296 297 300 303 303 305 296 294 289 291 288 292 289 290 290 289 289 290 291 295
Wind_Speed
3 2 2 2 2 2 2 3 3 4 4 4 4 4 4 4 3 2 2 4 6 7 8 8 9 9 9 7 7 8 10 11 11 10 11 11 12 11 10 11 12 11 11
4 4 3 3 3 3 2 2 3 4 4 4 5 4 5 5 5 5 3 3 5 6 7 7 6 8 8 8 8 7 9 11 10 10 11 12 12 13 12 9 12 11 12
5 5 4 4 4 3 4 3 3 3 3 3 5 5 4 5 5 6 4 4 3 4 5 6 7 7 8 7 8 6 6 8 9 9 6 8 8 11 11 12 9 10 12
8 6 5 5 4 3 3 3 3 4 4 3 4 4 4 5 6 6 5 5 4 4 4 6 8 8 8 8 7 6 7 8 9 9 8 9 8 7 10 10 12 12 11
9 7 6 6 5 4 4 4 3 3 4 4 5 6 6 6 7 5 7 7 6 5 4 5 9 9 10 9 8 7 7 7 9 8 8 9 10 9 11 10 10 13 12
9 8 7 7 5 5 4 4 5 3 4 5 6 8 7 5 5 6 7 6 6 6 5 5 4 4 9 10 9 9 9 7 9 9 9 9 10 10 12 11 10 9 12
11 10 8 8 7 7 7 5 4 5 3 2 5 4 4 4 5 4 4 5 6 6 6 5 4 3 4 9 10 11 11 9 10 9 10 10 11 10 10 11 11 11 11
12 11 10 9 9 7 8 8 7 3 3 3 3 2 3 1 1 2 3 5 7 5 6 7 7 7 5 5 7 11 12 10 10 10 10 11 11 10 13 11 11 11 13
13 13 13 11 10 9 8 9 9 9 6 4 6 3 3 3 4 2 3 4 6 5 6 7 8 8 8 7 7 8 11 12 12 11 11 11 12 12 12 14 13 13 13
13 14 14 13 12 9 11 10 9 9 7 8 4 7 7 4 4 4 2 3 4 7 7 6 8 9 9 7 10 11 12 13 12 12 13 12 12 12 13 13 15 13 13
12 12 14 14 14 11 12 12 11 12 10 8 8 4 6 6 7 7 7 5 3 5 6 7 7 8 9 8 8 9 13 13 13 13 14 14 13 13 13 14 15 14 15
8 13 14 13 13 12 13 12 13 14 13 12 9 9 9 5 7 8 9 9 8 6 6 7 7 8 8 7 10 13 14 14 13 13 13 14 14 14 13 14 15 17 16
8 12 13 13 12 13 14 13 13 14 14 12 14 11 10 11 9 7 8 10 7 4 5 7 8 8 7 7 8 14 14 14 14 14 15 15 15 15 14 15 14 16 17
9 10 11 12 14 15 14 14 11 11 13 13 16 14 11 11 10 11 10 8 8 7 3 8 5 7 6 7 10 14 10 14 14 15 15 16 15 15 15 16 16 16 17
9 10 11 11 13 14 14 14 11 13 13 13 14 14 12 11 10 11 11 10 10 8 8 4 5 6 6 6 10 10 11 12 14 16 17 17 17 17 15 16 17 16 15
11 11 10 12 12 12 13 13 11 13 14 11 10 14 14 11 11 10 10 11 11 11 11 4 6 5 6 6 9 12 12 18 17 18 19 18 18 18 17 16 16 16 14
10 11 11 11 12 12 12 12 13 13 14 13 14 14 16 14 10 11 10 10 11 11 13 10 8 8 10 10 10 10 11 10 9 19 21 21 19 19 18 16 16 15 15
9 11 10 11 12 12 12 14 14 13 15 15 15 14 16 11 16 15 11 14 13 13 12 16 11 8 11 11 13 14 10 10 11 15 19 21 20 19 19 17 16 14 15
10 10 10 11 12 12 12 12 13 13 14 15 14 15 16 16 16 11 13 12 11 10 12 12 12 9 8 6 9 10 11 11 8 16 19 21 21 20 19 17 15 15 15
9 9 9 10 11 11 11 12 12 13 14 13 15 17 17 16 16 15 14 15 13 12 12 12 11 11 10 7 7 9 9 8 10 8 14 15 16 17 18 17 15 15 15
8 8 8 10 10 10 9 13 13 14 14 16 16 16 15 17 23 19 10 13 12 11 10 10 11 10 9 8 7 5 8 7 6 8 8 9 8 8 9 14 13 14 13
7 7 9 10 11 9 16 20 16 12 14 16 15 14 15 19 19 24 25 25 16 14 14 10 11 12 14 10 7 7 6 7 5 6 6 9 6 8 7 7 12 13 13
6 8 10 9 12 13 16 20 21 13 13 13 13 11 10 10 16 13 20 25 25 28 25 13 15 15 12 12 9 7 7 7 7 3 6 5 4 7 6 7 14 14 14
5 7 9 9 10 11 17 19 21 14 13 15 15 14 12 11 12 12 12 12 13 13 16 14 17 14 13 10 12 10 9 6 3 3 6 5 4 5 4 5 12 14 14
5 6 7 9 9 12 14 16 15 12 13 14 13 13 13 14 16 18 13 12 13 12 13 21 23 25 23 24 17 7 6 6 5 5 8 4 4 4 4 5 6 14 15
7 5 8 8 11 11 15 16 13 8 10 10 11 13 17 14 15 17 11 12 12 13 9 10 9 17 20 16 23 15 10 9 6 5 8 8 5 4 3 3 4 5 8
Wind_Direction
250 260 263 263 286 298 307 317 328 331 331 337 335 329 293 284 276 269 288 327 355 10 9 360 9 7 355 21 13 16 11 8 2 1 357 0 360 3 350 345 353 358 342
236 240 246 251 253 254 266 302 321 323 321 318 315 313 309 286 283 278 278 297 327 349 357 2 7 11 349 354 358 359 9 5 350 355 2 356 349 352 344 353 355 347 335
234 243 245 244 246 236 254 266 270 270 280 292 289 292 286 283 284 270 268 270 283 300 313 338 338 348 346 342 339 347 0 348 348 335 354 340 6 354 348 339 344 337 330
226 231 237 241 236 235 244 256 278 288 282 281 293 292 277 267 265 262 253 253 253 272 283 303 310 316 320 321 333 328 323 346 345 334 348 344 352 351 336 350 338 339 341
227 230 236 242 232 233 229 242 247 262 284 292 293 288 276 263 252 241 236 232 234 244 262 286 304 301 302 294 311 314 313 335 336 327 334 339 343 350 339 333 351 338 337
227 226 234 240 231 238 238 227 241 236 275 293 295 289 279 269 255 245 236 224 225 230 240 260 288 294 299 288 291 296 298 314 319 322 313 332 329 344 330 339 352 325 334
227 225 233 235 222 231 239 234 243 251 262 259 297 294 278 278 244 230 239 237 231 233 241 239 251 277 293 291 288 294 286 297 307 317 310 326 323 327 338 336 332 334 321
226 225 229 233 226 227 228 224 217 229 245 220 266 271 315 244 298 264 227 223 229 232 234 232 239 246 256 260 267 276 272 275 289 304 312 315 321 327 325 328 328 333 328
226 224 226 229 229 223 230 222 213 214 237 199 216 265 256 265 313 208 208 230 239 237 240 240 244 250 259 260 262 262 257 259 275 288 295 305 314 323 320 322 320 321 324
229 228 228 227 228 223 227 225 217 218 218 235 205 228 241 257 264 297 227 234 230 240 239 237 248 254 252 256 252 254 250 247 268 280 286 294 302 310 315 316 314 310 315
226 227 227 227 228 223 229 226 219 214 214 229 222 195 221 228 240 250 278 259 254 238 237 246 243 250 248 249 246 244 245 245 258 267 281 284 288 301 310 314 310 305 304
232 227 225 227 230 226 226 224 224 222 217 220 223 222 216 203 205 214 241 262 265 267 253 248 244 246 248 241 240 239 238 245 260 264 270 276 280 288 300 305 307 303 302
236 233 223 223 225 226 226 223 221 222 221 220 222 223 225 231 231 220 241 258 267 264 258 242 242 245 245 236 230 225 231 248 257 266 270 273 274 279 289 297 302 301 299
249 242 225 227 229 228 225 222 223 224 222 225 226 223 225 229 226 226 232 239 261 248 249 249 239 233 228 229 224 224 233 246 257 265 272 273 271 270 279 293 298 302 297
248 243 234 230 229 229 227 223 225 226 226 226 229 228 228 231 229 230 231 229 239 267 271 205 246 227 229 227 229 226 230 235 254 265 264 266 267 267 268 286 296 301 295
243 243 235 235 236 232 229 225 228 232 230 228 227 229 229 229 227 225 224 226 227 236 255 214 214 234 217 222 229 231 234 239 254 266 264 262 263 264 261 276 289 293 293
244 242 239 238 236 232 228 229 233 232 231 234 230 232 235 232 231 226 220 224 228 227 244 257 252 219 228 231 234 233 236 239 249 260 261 260 259 261 257 268 279 281 285
242 241 239 239 239 235 233 228 232 230 230 232 233 232 238 230 234 231 225 226 227 229 239 249 252 233 225 226 246 245 247 248 252 255 258 256 257 255 252 263 278 267 280
245 241 237 239 241 239 238 236 236 238 237 236 237 235 237 228 233 229 229 233 232 232 230 242 247 249 241 213 236 241 246 249 252 252 258 257 257 255 252 259 265 267 278
253 246 242 247 247 248 244 240 236 237 240 239 235 233 235 230 230 230 228 227 228 227 228 232 240 244 245 220 223 253 251 231 252 249 251 247 250 255 255 259 250 270 268
258 259 258 253 248 242 237 233 231 234 235 239 240 237 235 235 235 234 232 232 231 231 233 235 243 243 236 226 217 198 240 262 241 241 250 244 235 239 251 251 257 259 254
260 252 251 252 253 246 242 236 233 237 235 240 244 243 242 242 246 248 246 241 229 230 232 233 240 238 239 227 221 219 216 246 258 192 217 242 220 233 234 232 247 237 249
265 261 260 253 258 257 252 248 243 234 239 243 247 247 240 232 237 237 247 249 248 236 229 231 235 232 238 221 209 208 199 208 230 179 190 245 208 235 240 238 240 230 232
280 284 279 269 266 272 265 259 253 246 243 242 241 240 237 237 231 232 243 241 236 240 248 238 232 243 238 217 207 214 208 209 210 197 192 227 180 239 240 232 224 229 223
294 282 272 280 273 279 283 275 265 249 244 250 250 247 241 243 242 240 243 249 253 247 248 253 257 260 250 237 218 202 183 191 208 202 193 217 192 229 215 231 220 229 215
285 296 299 287 279 281 285 286 275 257 251 249 247 248 246 244 246 244 243 245 248 253 237 235 244 257 260 254 252 206 197 207 211 189 190 193 185 200 239 195 206 205 203